Overview Statistics Trail Chart Weather Telemetry Raw packets
 

This is the latest recevied weather packets stored in our database for station/object KD4EG. If no packets are shown the sender has not sent any weather packets the latest 10 day(s).

<< 102 103 104 105 106 107 108 >>
Time Temp. Humidity Pressure Rain* Wind** Luminosity Snow
1787846695 27.78° C 71% 1018.7 hPa 0 mm - 360 W/m² -
1787846390 27.78° C 72% 1018.7 hPa 0 mm - 399 W/m² -
1787846086 27.78° C 71% 1018.9 hPa 0 mm - 391 W/m² -
1787845781 27.22° C 72% 1018.6 hPa 0 mm - 522 W/m² -
1787845476 26.67° C 73% 1018.9 hPa 0 mm - 360 W/m² -
1787845173 26.67° C 74% 1018.8 hPa 0 mm - 326 W/m² -
1787844868 26.67° C 74% 1018.8 hPa 0 mm - 333 W/m² -
1787844569 26.67° C 74% 1018.8 hPa 0 mm - 325 W/m² -
1787844262 26.67° C 75% 1018.9 hPa 0 mm - 427 W/m² -
1787843961 26.67° C 75% 1018.9 hPa 0 mm - 367 W/m² -
1787843656 26.67° C 75% 1018.8 hPa 0 mm - 552 W/m² -
1787843353 26.11° C 76% 1018.8 hPa 0 mm - 544 W/m² -
1787843048 26.11° C 77% 1019 hPa 0 mm - 500 W/m² -
1787842748 25.56° C 78% 1018.9 hPa 0 mm - 507 W/m² -
1787842443 25.56° C 79% 1018.9 hPa 0 mm - 342 W/m² -
1787842138 25.56° C 78% 1019.2 hPa 0 mm - 475 W/m² -
1787841832 25.56° C 80% 1018.9 hPa 0 mm - 505 W/m² -
1787841529 25.56° C 78% 1019.3 hPa 0 mm - 342 W/m² -
1787841227 25° C 79% 1019 hPa 0 mm - 390 W/m² -
1787840922 25° C 80% 1019 hPa 0 mm - 447 W/m² -
1787840617 25° C 81% 1018.8 hPa 0 mm - 383 W/m² -
1787840313 24.44° C 82% 1018.9 hPa 0 mm - 258 W/m² -
1787840012 24.44° C 82% 1019.2 hPa 0 mm - 420 W/m² -
1787839707 24.44° C 82% 1018.8 hPa 0 mm - 296 W/m² -
1787839402 24.44° C 83% 1018.8 hPa 0 mm - 305 W/m² -

* Rain latest hour (hover to see other rain measurements)
** Current wind speed in m/s (hover to see current wind gust speed)